Home   Weather   Inuvik   Past weeks

Flag for Canada Past Weather in Inuvik, Northwest Territories, Canada — Yesterday and Last 2 Weeks

10 °F

Passing clouds.

Feels Like: 4 °F
Forecast: 4 / 20 °F
Wind: 3 mph from West

Location: Inuvik

Current Time: Oct 24, 2016 at 7:25:59 PM

Latest Report: Oct 24, 2016 at 7:00 PM

Visibility: 15 mi

Pressure: 30.29 "Hg

Humidity: 92%

Dew Point: 9 °F

Location of InuvikLocation

Past Weather in Inuvik — Graph


Inuvik Temperature Yesterday

Maximum temperature yesterday: 21 °F (at 4:00 PM)
Minimum temperature yesterday: 9 °F (at 10:00 PM)
Average temperature yesterday: 16 °F

High & Low Weather Summary for the Past Weeks

High37 °F (Oct 9, 6:00 PM)100% (Oct 10, 3:01 PM)30.44 "Hg (Oct 10, 3:01 PM)
Low3 °F (Oct 18, 8:00 AM)60% (Oct 9, 6:00 PM)29.64 "Hg (Oct 20, 11:00 AM)
Average18 °F86%30.05 "Hg
* Reported Oct 9 6:00 PM — Oct 24 6:00 PM, Inuvik, Weather by CustomWeather, © 2016

Note: Actual official high and low records may vary slightly from our data, if they occured in-between our weather recording intervals... More about our weather records


Inuvik Weather History for the Previous 24 Hours

Scroll right to see more
Time TempWeatherWind HumidityBarometerVisibility
6:00 PM
Mon, Oct 24
12 °FPassing clouds.3 mph92%30.28 "Hg15 mi
5:00 PM14 °FPassing clouds.3 mph92%30.28 "Hg15 mi
4:00 PM16 °FPassing clouds.2 mph93%30.29 "Hg15 mi
3:00 PM16 °FPassing clouds.2 mph93%30.29 "Hg15 mi
2:00 PM14 °FPassing clouds.No wind92%30.30 "Hg15 mi
1:00 PM12 °FScattered clouds.5 mph92%30.30 "Hg15 mi
12:00 PM9 °FPassing clouds.5 mph85%30.31 "Hg15 mi
11:00 AM12 °FPassing clouds.6 mph85%30.31 "Hg15 mi
10:00 AM12 °FPassing clouds.6 mph85%30.32 "Hg15 mi
9:00 AM12 °FPassing clouds.7 mph92%30.33 "Hg15 mi
8:00 AM12 °FClear.9 mph92%30.34 "Hg15 mi
7:00 AM7 °FClear.3 mph85%30.34 "Hg15 mi
6:00 AM12 °FClear.2 mph92%30.34 "Hg15 mi
5:00 AM9 °FClear.3 mph92%30.35 "Hg15 mi
4:00 AM10 °FClear.5 mph92%30.37 "Hg15 mi
3:00 AM5 °FClear.6 mph92%30.38 "Hg15 mi
2:00 AM7 °FClear.7 mph85%30.40 "Hg15 mi
1:00 AM9 °FIce fog.5 mph92%30.40 "Hg2 mi
12:59 AM9 °FIce fog.5 mph92%30.40 "Hg2 mi
12:00 AM10 °FIce fog.3 mph92%30.42 "Hg0 mi
11:00 PM
Sun, Oct 23
10 °FIce fog.2 mph92%30.42 "Hg1 mi
10:53 PM9 °FIce fog.3 mph92%30.42 "Hg1 mi
10:00 PM9 °FFog.2 mph85%30.43 "Hg10 mi
9:00 PM18 °FPassing clouds.2 mph93%30.43 "Hg15 mi
8:00 PM18 °FOvercast.6 mph93%30.43 "Hg15 mi
7:00 PM18 °FOvercast.3 mph93%30.44 "Hg15 mi
Weather by CustomWeather, © 2016

See weather overviewHow to use our weather pages